Погода Ртищево

Погода Ртищево : погода сейчас, прогноз погоды и архив. Всё, что Вы хотите узнать о погоде Ртищево!

Хотите узнать прогноз погоды Ртищево? Тогда Вам сюда: Погода Ртищево

Поиск расширенной информации на нашем сайте:

Другие новости

Новости СМИ2

Главная страница сайта

Новости сайта

03.07.2017

Напоминаем, что на нашем специализированном сайте Метеоцентр.Азия вы можете получить высокодетализированные автоматические прогнозы погоды по пунктам России, СНГ и мира в авиационном формате (включающие направление и скорость ветра, видимость, явления погоды, количество и форму облачности, нижнюю и верхнюю границу облачности).


Погода Ртищево - сегодня

Время (UTC), дата Ветер
(°,м/с) 
Видим.   Явления Облачность Т
(°С)
Тd
(°С)
f(%) Тe
(°С)
Pmin
(гПа)
dP
(гПа)
Po
(мм)
O2
(г/м3)
Тmin Tmax R s Состояние
почвы
09 20.05.18 210 (ЮЗ) 10 км    8/6 600 м верхняя 
[Cu med, cong|Cs]
+23.8 +13.1 51 +30  1013.2  0.4  742  272           
12 20.05.18 310 (СЗ) 10 км    8/5 600 м верхняя 
[Cu med, cong|Ci fib]
+22.7 +13.1 55 +29  1013.4  0.1  742  273           
18 20.05.18 130 (ЮВ) 4000 м  в посл. час ливневой дождь  10/10 600 м кучево-дожд. 
[Cb cap]
+15.9 +15.7 99 +27  1015.2  1.5  743  279           
21 20.05.18 020 (С) 4000 м  {ливн. осадки}  8/0 средняя 
[Ac trans]
+15.2 +15 99 +24  1016  0.7  743  281           
03 21.05.18 060 (СВ) 10 км    10/0 средняя 
[Ac und]
+13.8 +13.1 96 +20  1017.8  1.1  745  283  +13.5      влажная 
06 21.05.18 060 (СВ) 10 км  в посл. час ливневой дождь  10/6 600 м кучево-дожд., средняя 
[Cb cap|Ac As]
+14.5 +13.6 94 +21  1019.9  2.1  746  283           
09 21.05.18 050 (СВ) 4000 м  слаб. ливневой дождь  10/8 600 м кучево-дожд., средняя 
[Cb cap|Ac As]
+14.2 +14 99 +21  1020.8  0.8  747  283           
15 21.05.18 060 (СВ) 5{10}  10 км  {ливн. осадки}  10/10 720 м 
[Sc]
+13.5 +12.9 96 +18  1021.6  0.2  747  284    +15     
03 22.05.18 080 (В) 10 км    10/10 700 м 
[Sc]
+11.9 +8.5 80 +11  1025.2  0.8  750  288  +11        влажная 
06 22.05.18 100 (В) 10 км    8/3 600 м средняя, верхняя 
[Cu med, cong|Ac trans|Ci fib]
+17.1 +9.9 63 +18  1026.1  1.3  751  283           
09 22.05.18 090 (В) 4{10}  10 км    9/0 средняя, верхняя 
[Ac und|Ci fib]
+21 +9.8 49 +22  1026  0.2  751  279           
18 22.05.18 040 (СВ) 4000 м    8/3 600 м кучево-дожд., средняя, верхняя 
[Cb cap|Ac trans|Ci fib]
+17.1 +10.1 63 +19  1026  0.1  751  283           
21 22.05.18 050 (СВ) 4000 м    10/0 средняя 
[Ac As]
+17.8 +6.4 47 +19  1026.2  0.2  751  283           
03 23.05.18 100 (В) 10 км  {ливн. осадки}  10/10 630 м 
[Sc]
+15.3 +8.5 64 +16  1025.9  -1.3  751  285  +12.5      влажная 
06 23.05.18 090 (В) 10 км  {ливн. осадки}  10/3 600 м средняя 
[Sc|Ac und]
+18 +8.8 55 +18  1025.1  -0.6  750  282           
09 23.05.18 130 (ЮВ) 4{10}  10 км    10/0 средняя, верхняя 
[Ac trans|Ci]
+21.9 +9.3 45 +22  1024.1  -0.5  750  278           
12 23.05.18 130 (ЮВ) 10 км    10/4 600 м кучево-дожд., средняя, верхняя 
[Cb cap|Ac As|Ci]
+23.8 +13.7 53 +30  1022.8  -1.1  749  275           
18 23.05.18 090 (В) 4000 м    10/0 средняя, верхняя 
[Ac trans|Ci]
+21.2 +10.5 50 +23  1020.4  -1.1  747  277           
21 23.05.18 090 (В) 4000 м    10/10 630 м 
[Sc]
+19.9 +8.4 47 +21  1019.3  -1.1  746  279           
03 24.05.18 090 (В) 10 км  {ливн. осадки}  10/0 средняя 
[Ac und]
+18 +9.9 59 +20  1016.3  -1.7  744  279  +16.7    0.0    влажная 
06 24.05.18 120 (ЮВ) 10 км  {ливн. осадки}  8/0 средняя, верхняя 
[Ac trans|Ci fib]
+23.4 +13.1 52 +29  1015.3  -0.5  743  273           
09 24.05.18 170 (Ю) 10 км    9/0 средняя, верхняя 
[Ac trans|Ci fib]
+27.9 +14.1 43 +35  1013.3  -1.3  742  269           
12 24.05.18 090 (В) 10 км    9/5 600 м средняя 
[Cu med, cong|Ac As]
+26.6 +14.9 49 +35  1012  -1.3  741  269           
15 24.05.18 050 (СВ) 3{13}  10 км  в посл. час гроза{ливн. осадки}  10/10 600 м кучево-дожд. 
[Cb cap]
+22.2 +13.5 58 +29  1011.1  -1.2  740  273    +28.7  0.0     
03 25.05.18 060 (СВ) 4{12}  10 км    10/10 660 м 
[Sc]
+17.9 +12.1 69 +22  1011.5  0.3  740  278  +17.3        сухая 
Время (UTC), дата Ветер
(°,м/с) 
Видим.   Явления Облачность Т
(°С)
Тd
(°С)
f(%) Тe
(°С)
Pmin
(гПа)
dP
(гПа)
Po
(мм)
O2
(г/м3)
Тmin Tmax R s Состояние
почвы

Для получения пояснительной информации подведите курсор к названию столбца.

ПОГОДА Ртищево - архив

Всё, что Вы хотите узнать о погоде Ртищево - удобно и подробно!

Выберите нужную дату (начиная с 1 января 2015* года) и нажмите кнопку "Найти".
Будут отображены архивные сводки погоды по пункту Ртищево, начиная с указанной даты.


Отображать данные в формате CSV (для использования в таблицах Excel)


Внимание! Наш архив погоды предназначен исключительно для личного некоммерческого использования в познавательных целях. Если Вам необходимы официальные справки о состоянии погоды (для производственных, юридических, коммерческих и т.п. целей), обращайтесь в органы Росгидромета.

*Примечание: данная дата относится к архиву по метеостанциям СССР (Россия, СНГ, Балтия).
Архив по метеостанциям Зарубежной Европы и Азии (кроме Китая) хранится 10 дней, по другим регионам земного шара (Китай, Африка, Америка, Австралия, Океания) - 1 день.

Ртищево - район местоположения метеостанции


Название, широта, долгота, высота метеостанции:
Ртищево 52.2°ш. 43.8°д. 213 м над ур. моря [Российская Федерация]

Дополнительная информация

В oтличие oт бoльшинства пoгoдных сайтoв мы публикуем пoдрoбную метеoинфoрмацию в детальнoм прoфессиoнальнoм фoрмате.

Характеристики температуры и влажнoсти вoздуха измеряются на высoте 2 м в тени вдали oт зданий и деревьев.
Скoрoсть ветра измеряется на высoте 10 м (на урoвне рoста челoвека скoрoсть ветра ниже в 1.5-2 раза). Если метеoстанция нахoдится в гoрoде или в лесу, тo скoрoсть ветра занижена на 2-4 м/с пo сравнению с oткрытым местoм. Скoрoсть ветра над акватoриями крупных рек и oзёр, а также на вершинах хoлмoв на 2-5 м/с выше, чем в oбычных услoвиях.
Атмoсфернoе давление в разных тoчках местнoсти мoжет значительнo oтличаться oт давления на метеoстанции, в зависимoсти oт услoвий рельефа (при пoдъёме на 10 м давление пoнижается примернo на 1 мм рт.ст.).